FW5225 Weather Reports


time (UTC)temp
F
wind
direction
speed
knots
gust
knots
rain 1hr
in
rain 24hr
in
rain mn
in
humidity
%
barometer
mb
20260507190025 90 258 0.9 4.3 0.00 0.00 0.00 10 1010.0
20260507010024 83 151 1.7 8.7 0.00 0.00 0.00 18 1010.1
20260507005517 84 213 1.7 6.1 0.00 0.00 0.00 18 1010.2
20260507005016 84 190 1.7 5.2 0.00 0.00 0.00 18 1010.1
20260507004516 84 184 1.7 6.1 0.00 0.00 0.00 18 1010.2
20260507004015 84 260 2.6 6.1 0.00 0.00 0.00 17 1010.2
20260507003515 85 173 0.9 6.1 0.00 0.00 0.00 18 1010.1
20260507003015 85 211 2.6 6.1 0.00 0.00 0.00 17 1010.2
20260507002514 85 213 1.7 5.2 0.00 0.00 0.00 18 1010.2
20260507002014 85 205 0.9 7.0 0.00 0.00 0.00 17 1010.1
20260507001515 85 222 1.7 7.8 0.00 0.00 0.00 18 1010.1
20260507001013 85 198 1.7 7.8 0.00 0.00 0.00 17 1010.1
20260507000513 85 203 1.7 6.1 0.00 0.00 0.00 18 1010.0
20260507000018 86 224 1.7 6.1 0.00 0.00 0.00 18 1010.2
20260506235513 86 257 0.9 5.2 0.00 0.00 0.00 17 1010.1
20260506235011 86 183 1.7 6.1 0.00 0.00 0.00 17 1010.2
20260506234511 86 171 0.9 6.1 0.00 0.00 0.00 18 1010.2
20260506234011 86 95 0.0 7.0 0.00 0.00 0.00 18 1010.3
20260506233511 86 203 1.7 7.0 0.00 0.00 0.00 17 1010.2
20260506233010 86 180 0.9 6.1 0.00 0.00 0.00 18 1010.2
20260506232511 86 310 1.7 6.1 0.00 0.00 0.00 18 1010.4
20260506232009 86 141 1.7 7.0 0.00 0.00 0.00 18 1010.4
20260506231510 86 210 1.7 7.0 0.00 0.00 0.00 18 1010.4
20260506231008 86 167 0.9 7.0 0.00 0.00 0.00 18 1010.5
20260506230507 86 225 1.7 4.3 0.00 0.00 0.00 18 1010.6
20260506230007 86 182 1.7 4.3 0.00 0.00 0.00 18 1010.7
20260506225506 86 251 1.7 7.8 0.00 0.00 0.00 18 1010.7
20260506225006 86 155 1.7 8.7 0.00 0.00 0.00 18 1010.7
20260506224505 86 250 1.7 7.8 0.00 0.00 0.00 18 1010.8
20260506224004 86 179 1.7 7.8 0.00 0.00 0.00 18 1010.8
20260506223503 86 175 0.9 4.3 0.00 0.00 0.00 18 1010.9
20260506223002 85 240 0.9 5.2 0.00 0.00 0.00 18 1010.9
20260506222502 85 192 0.9 7.0 0.00 0.00 0.00 18 1011.0
20260506222002 85 228 0.9 5.2 0.00 0.00 0.00 18 1011.1
20260506221504 85 229 1.7 5.2 0.00 0.00 0.00 18 1011.2
20260506221002 86 166 1.7 5.2 0.00 0.00 0.00 19 1011.3
20260506220501 86 298 0.9 5.2 0.00 0.00 0.00 18 1011.3
20260506220101 86 190 1.7 8.7 0.00 0.00 0.00 18 1011.4
20260506215600 86 213 0.9 8.7 0.00 0.00 0.00 19 1011.4
20260506215058 85 144 1.7 7.8 0.00 0.00 0.00 19 1011.4
20260506214601 85 128 1.7 7.8 0.00 0.00 0.00 20 1011.6
20260506214057 85 171 2.6 7.8 0.00 0.00 0.00 20 1011.7
20260506213559 85 226 0.9 7.0 0.00 0.00 0.00 20 1011.8
20260506213059 84 251 2.6 7.0 0.00 0.00 0.00 20 1011.9
20260506212555 84 213 0.9 5.2 0.00 0.00 0.00 20 1012.0
20260506212055 84 184 1.7 5.2 0.00 0.00 0.00 21 1012.1
20260506211556 84 226 0.9 4.3 0.00 0.00 0.00 21 1012.2
20260506211055 83 234 0.9 4.3 0.00 0.00 0.00 21 1012.3
20260506210554 84 273 0.9 6.1 0.00 0.00 0.00 20 1012.4
20260506210054 84 134 1.7 6.1 0.00 0.00 0.00 22 1012.5
20260506205553 84 184 1.7 6.1 0.00 0.00 0.00 22 1012.5
20260506205052 84 182 1.7 6.1 0.00 0.00 0.00 20 1012.7
20260506204552 84 115 2.6 6.1 0.00 0.00 0.00 20 1012.7
20260506204050 83 183 0.9 5.2 0.00 0.00 0.00 21 1012.7
20260506203549 82 173 0.0 5.2 0.00 0.00 0.00 21 1012.8
20260506203049 81 229 0.0 4.3 0.00 0.00 0.00 22 1012.8
20260506202549 82 106 0.9 7.8 0.00 0.00 0.00 22 1012.8
20260506202049 82 274 3.5 7.8 0.00 0.00 0.00 21 1013.0
20260506201550 82 205 0.9 4.3 0.00 0.00 0.00 22 1013.0
20260506201048 82 115 1.7 4.3 0.00 0.00 0.00 21 1013.1
20260506200545 81 263 0.0 5.2 0.00 0.00 0.00 22 1013.1
20260506200046 80 198 0.9 5.2 0.00 0.00 0.00 23 1013.2
20260506195546 81 119 0.9 4.3 0.00 0.00 0.00 21 1013.3
20260506195045 81 284 1.7 4.3 0.00 0.00 0.00 22 1013.3
20260506194545 81 278 0.0 6.1 0.00 0.00 0.00 22 1013.3
20260506194044 80 167 1.7 6.1 0.00 0.00 0.00 23 1013.3
20260506193542 79 164 0.9 7.0 0.00 0.00 0.00 23 1013.4
20260506193050 80 288 3.5 8.7 0.00 0.00 0.00 22 1013.4
20260506192543 81 286 2.6 7.0 0.00 0.00 0.00 22 1013.5
20260506192042 81 268 0.9 4.3 0.00 0.00 0.00 22 1013.5
20260506191542 81 232 0.0 4.3 0.00 0.00 0.00 23 1013.7
20260506191046 81 161 1.7 5.2 0.00 0.00 0.00 22 1013.7
20260506190541 81 222 1.7 5.2 0.00 0.00 0.00 23 1013.8
20260506190040 80 146 1.7 4.3 0.00 0.00 0.00 22 1013.8